Location: Peterborough
(44.3091°N, 78.3197°W)
Time: 19:51:33
(UTC-04:00)

A-11 Canister half - Pass Details

Date: 24 March 2023
Orbit: 1526 x 1682 km, 47.3° (Epoch: 06 June)

Event Time Altitude Azimuth Distance (km) Brightness Sun altitude
Rises 01:31:34 0° 292° (WNW) 4,791 11.8 -44.3°
Reaches altitude 10° 01:35:28 10° 279° (W) 3,777 11.0 -44.2°
Enters shadow 01:35:29 10° 279° (W) 3,776 11.0 -44.2°
